DAL906 KDEN-KIAH

Flight info

Callsign DAL906
Flight time 2h 12m
Altitude 35000
Route SLEEK2 SLEEK NOSEW MQP GUSHR3
Aircraft A321/M-SDE3FGHIRWY/LB1

Departure

Time 2026-05-06 14:35
Airport Denver International Airport (KDEN)

Arrival

Time 2026-05-06 16:48
Airport George Bush Intercontinental Airport (KIAH)
Time Latitude Longitude Altitude Speed Heading
2026-05-06 14:08 39.85331 -104.67097 5389 ft 0 kts 20°
2026-05-06 14:21 39.85325 -104.67100 5389 ft 2 kts
2026-05-06 14:21 39.85310 -104.67100 5389 ft 2 kts
2026-05-06 14:21 39.85296 -104.67102 5389 ft 2 kts
2026-05-06 14:22 39.85282 -104.67104 5389 ft 1 kts
2026-05-06 14:22 39.85275 -104.67106 5389 ft 0 kts 57°
2026-05-06 14:22 39.85274 -104.67113 5389 ft 1 kts 90°
2026-05-06 14:22 39.85274 -104.67118 5389 ft 0 kts 84°
2026-05-06 14:27 39.85278 -104.66991 5389 ft 21 kts 89°
2026-05-06 14:28 39.85283 -104.66806 5389 ft 18 kts 90°
2026-05-06 14:28 39.85283 -104.66772 5389 ft 0 kts 90°
2026-05-06 14:28 39.85282 -104.66709 5389 ft 10 kts 90°
2026-05-06 14:28 39.85287 -104.66606 5389 ft 12 kts 84°
2026-05-06 14:29 39.85294 -104.66497 5392 ft 11 kts 87°
2026-05-06 14:29 39.85296 -104.66397 5395 ft 10 kts 89°
2026-05-06 14:29 39.85297 -104.66305 5398 ft 9 kts 78°
2026-05-06 14:29 39.85347 -104.66245 5399 ft 11 kts 12°
2026-05-06 14:30 39.85438 -104.66238 5399 ft 14 kts
2026-05-06 14:30 39.85549 -104.66238 5395 ft 18 kts 359°
2026-05-06 14:30 39.85683 -104.66239 5395 ft 19 kts 359°
2026-05-06 14:30 39.85828 -104.66241 5391 ft 22 kts 358°
2026-05-06 14:31 39.86001 -104.66232 5384 ft 26 kts
2026-05-06 14:31 39.86182 -104.66230 5385 ft 26 kts
2026-05-06 14:31 39.86364 -104.66230 5386 ft 26 kts 359°
2026-05-06 14:31 39.86544 -104.66229 5386 ft 26 kts
2026-05-06 14:32 39.86733 -104.66228 5380 ft 28 kts 359°
2026-05-06 14:32 39.86936 -104.66226 5372 ft 24 kts
2026-05-06 14:32 39.87116 -104.66220 5369 ft 26 kts
2026-05-06 14:32 39.87198 -104.66216 5366 ft 6 kts 359°
2026-05-06 14:33 39.87272 -104.66218 5362 ft 13 kts 358°
2026-05-06 14:33 39.87295 -104.66218 5362 ft 14 kts 359°
2026-05-06 14:33 39.87317 -104.66219 5362 ft 14 kts 359°
2026-05-06 14:34 39.87425 -104.66219 5362 ft 16 kts
2026-05-06 14:34 39.87546 -104.66213 5362 ft 18 kts
2026-05-06 14:34 39.87677 -104.66213 5362 ft 19 kts 359°
2026-05-06 14:34 39.87752 -104.66097 5362 ft 19 kts 86°
2026-05-06 14:35 39.87753 -104.65668 5356 ft 85 kts 90°
2026-05-06 14:35 39.87745 -104.64574 5343 ft 154 kts 91°
2026-05-06 14:35 39.87741 -104.62973 5556 ft 191 kts 87°
2026-05-06 14:35 39.87730 -104.61199 6220 ft 201 kts 92°
2026-05-06 14:36 39.87369 -104.59487 7110 ft 200 kts 112°
2026-05-06 14:36 39.86752 -104.57911 7713 ft 200 kts 115°
2026-05-06 14:36 39.86183 -104.56158 7994 ft 216 kts 105°
2026-05-06 14:36 39.85764 -104.54181 8199 ft 238 kts 105°
2026-05-06 14:37 39.85158 -104.52094 8534 ft 255 kts 111°
2026-05-06 14:37 39.84417 -104.49925 8906 ft 271 kts 111°
2026-05-06 14:37 39.83642 -104.47636 9374 ft 281 kts 112°
2026-05-06 14:37 39.82881 -104.45291 9849 ft 283 kts 111°
2026-05-06 14:38 39.82132 -104.42937 10004 ft 283 kts 110°
2026-05-06 14:38 39.81167 -104.40724 9994 ft 285 kts 129°
2026-05-06 14:38 39.79637 -104.39053 10028 ft 291 kts 149°
2026-05-06 14:38 39.77723 -104.38103 10358 ft 302 kts 162°
2026-05-06 14:39 39.75661 -104.37329 10722 ft 317 kts 162°
2026-05-06 14:39 39.73484 -104.36526 11016 ft 333 kts 165°
2026-05-06 14:39 39.71146 -104.36228 11425 ft 344 kts 183°
2026-05-06 14:39 39.69664 -104.36526 11829 ft 346 kts 194°
2026-05-06 14:40 39.69590 -104.36550 11852 ft 346 kts 194°
2026-05-06 14:41 39.67334 -104.37620 12577 ft 345 kts 202°
2026-05-06 14:41 39.65124 -104.38812 13252 ft 346 kts 203°
2026-05-06 14:41 39.62890 -104.40022 13944 ft 346 kts 203°
2026-05-06 14:41 39.62271 -104.40354 14124 ft 347 kts 203°
2026-05-06 14:45 39.60670 -104.41206 14574 ft 348 kts 203°
2026-05-06 14:45 39.58434 -104.42387 15139 ft 351 kts 203°
2026-05-06 14:45 39.56142 -104.43589 15677 ft 354 kts 204°
2026-05-06 14:46 39.53810 -104.44632 16206 ft 360 kts 195°
2026-05-06 14:46 39.51306 -104.45000 16647 ft 369 kts 182°
2026-05-06 14:46 39.48735 -104.44640 17105 ft 377 kts 173°
2026-05-06 14:46 39.46119 -104.43998 17584 ft 381 kts 172°
2026-05-06 14:47 39.43512 -104.43330 18026 ft 385 kts 172°
2026-05-06 14:47 39.43449 -104.43314 18037 ft 385 kts 172°
2026-05-06 14:47 39.42235 -104.43008 18232 ft 387 kts 172°
2026-05-06 14:48 39.39590 -104.42351 18707 ft 390 kts 173°
2026-05-06 14:48 39.39542 -104.42339 18716 ft 390 kts 173°
2026-05-06 14:48 39.38078 -104.41982 18965 ft 392 kts 173°
2026-05-06 14:49 39.35406 -104.41336 19424 ft 395 kts 173°
2026-05-06 14:49 39.32684 -104.40680 19921 ft 396 kts 173°
2026-05-06 14:49 39.29987 -104.40028 20415 ft 398 kts 173°
2026-05-06 14:49 39.27270 -104.39374 20884 ft 400 kts 174°
2026-05-06 14:50 39.24520 -104.38715 21352 ft 402 kts 174°
2026-05-06 14:50 39.21765 -104.38052 21810 ft 404 kts 174°
2026-05-06 14:50 39.19013 -104.37391 22239 ft 406 kts 174°
2026-05-06 14:50 39.16231 -104.36725 22662 ft 408 kts 174°
2026-05-06 14:51 39.13441 -104.35985 23058 ft 413 kts 171°
2026-05-06 14:51 39.10623 -104.35091 23461 ft 416 kts 171°
2026-05-06 14:51 39.07840 -104.34199 23871 ft 418 kts 172°
2026-05-06 14:51 39.04985 -104.33283 24258 ft 420 kts 172°
2026-05-06 14:52 39.02142 -104.32372 24607 ft 422 kts 172°
2026-05-06 14:52 38.99298 -104.31464 24978 ft 423 kts 172°
2026-05-06 14:52 38.96450 -104.30554 25344 ft 425 kts 172°
2026-05-06 14:52 38.93592 -104.29641 25626 ft 427 kts 171°
2026-05-06 14:53 38.90671 -104.28709 25952 ft 429 kts 172°
2026-05-06 14:53 38.87759 -104.27779 26294 ft 430 kts 172°
2026-05-06 14:53 38.84851 -104.26852 26635 ft 432 kts 172°
2026-05-06 14:53 38.81935 -104.25926 26930 ft 434 kts 172°
2026-05-06 14:54 38.78999 -104.24992 27238 ft 435 kts 172°
2026-05-06 14:54 38.76062 -104.24061 27529 ft 437 kts 172°
2026-05-06 14:54 38.74920 -104.23699 27649 ft 438 kts 172°
2026-05-06 14:54 38.74553 -104.23583 27686 ft 438 kts 172°
2026-05-06 14:55 38.71598 -104.22645 27976 ft 439 kts 172°
2026-05-06 14:55 38.68605 -104.21697 28274 ft 440 kts 172°
2026-05-06 14:55 38.65641 -104.20759 28565 ft 441 kts 172°
2026-05-06 14:55 38.62677 -104.19820 28834 ft 443 kts 172°
2026-05-06 14:56 38.59661 -104.18868 29116 ft 444 kts 172°
2026-05-06 14:56 38.56676 -104.17921 29480 ft 443 kts 171°
2026-05-06 14:56 38.53741 -104.16744 29857 ft 446 kts 165°
2026-05-06 14:56 38.50890 -104.15163 30189 ft 450 kts 159°
2026-05-06 14:57 38.48156 -104.13173 30505 ft 454 kts 153°
2026-05-06 14:57 38.45594 -104.10799 30807 ft 458 kts 147°
2026-05-06 14:57 38.43125 -104.08180 31107 ft 458 kts 145°
2026-05-06 14:57 38.40719 -104.05565 31400 ft 458 kts 145°
2026-05-06 14:58 38.38311 -104.02940 31669 ft 458 kts 145°
2026-05-06 14:58 38.35895 -104.00318 31948 ft 458 kts 146°
2026-05-06 14:58 38.33477 -103.97706 32156 ft 458 kts 146°
2026-05-06 14:58 38.31022 -103.95065 32375 ft 457 kts 146°
2026-05-06 14:59 38.28608 -103.92474 32583 ft 458 kts 146°
2026-05-06 14:59 38.26165 -103.89859 32761 ft 459 kts 146°
2026-05-06 14:59 38.23730 -103.87253 32964 ft 459 kts 146°
2026-05-06 14:59 38.21300 -103.84652 33177 ft 459 kts 147°
2026-05-06 15:00 38.18847 -103.82031 33389 ft 459 kts 147°
2026-05-06 15:00 38.16384 -103.79403 33553 ft 461 kts 147°
2026-05-06 15:00 38.13926 -103.76782 33724 ft 462 kts 147°
2026-05-06 15:00 38.11483 -103.74181 33885 ft 464 kts 147°
2026-05-06 15:01 38.08995 -103.71533 34088 ft 464 kts 147°
2026-05-06 15:01 38.06546 -103.68926 34285 ft 464 kts 147°
2026-05-06 15:01 38.04066 -103.66241 34444 ft 467 kts 146°
2026-05-06 15:01 38.01614 -103.63532 34584 ft 469 kts 146°
2026-05-06 15:02 37.99153 -103.60800 34761 ft 470 kts 146°
2026-05-06 15:02 37.96711 -103.58087 34992 ft 469 kts 147°
2026-05-06 15:02 37.94257 -103.55370 35112 ft 470 kts 147°
2026-05-06 15:03 37.89307 -103.49909 35117 ft 471 kts 147°
2026-05-06 15:03 37.84338 -103.44440 35117 ft 471 kts 148°
2026-05-06 15:04 37.79400 -103.39017 35117 ft 471 kts 148°
2026-05-06 15:04 37.74477 -103.33616 35116 ft 468 kts 149°
2026-05-06 15:05 37.69561 -103.28240 35118 ft 468 kts 149°
2026-05-06 15:05 37.64628 -103.22859 35117 ft 470 kts 149°
2026-05-06 15:05 37.62164 -103.20171 34959 ft 469 kts 149°
2026-05-06 15:06 37.59708 -103.17498 35032 ft 471 kts 149°
2026-05-06 15:06 37.54759 -103.12114 35113 ft 469 kts 150°
2026-05-06 15:07 37.49844 -103.06775 35121 ft 468 kts 150°
2026-05-06 15:07 37.44893 -103.01411 35113 ft 470 kts 150°
2026-05-06 15:08 37.39954 -102.96066 35121 ft 468 kts 151°
2026-05-06 15:08 37.35049 -102.90766 35136 ft 465 kts 151°
2026-05-06 15:09 37.30117 -102.85452 35111 ft 465 kts 151°
2026-05-06 15:09 37.25207 -102.80172 35094 ft 465 kts 152°
2026-05-06 15:10 37.20312 -102.74905 35085 ft 465 kts 152°
2026-05-06 15:10 37.15393 -102.69627 35106 ft 465 kts 152°
2026-05-06 15:11 37.10468 -102.64371 35090 ft 466 kts 153°
2026-05-06 15:11 37.05547 -102.59116 35099 ft 464 kts 153°
2026-05-06 15:12 37.00594 -102.53842 35115 ft 465 kts 153°
2026-05-06 15:12 36.95703 -102.48635 35119 ft 466 kts 153°
2026-05-06 15:13 36.90758 -102.43381 35123 ft 466 kts 154°
2026-05-06 15:13 36.85823 -102.38144 35125 ft 465 kts 154°
2026-05-06 15:14 36.80915 -102.32942 35123 ft 463 kts 155°
2026-05-06 15:14 36.75994 -102.27741 35117 ft 464 kts 155°
2026-05-06 15:15 36.71078 -102.22555 35117 ft 462 kts 155°
2026-05-06 15:15 36.68639 -102.19984 35261 ft 463 kts 155°
2026-05-06 15:15 36.66178 -102.17387 35174 ft 461 kts 155°
2026-05-06 15:16 36.61293 -102.12247 35124 ft 459 kts 155°
2026-05-06 15:16 36.56395 -102.07111 35111 ft 462 kts 155°
2026-05-06 15:17 36.51492 -102.01970 35108 ft 462 kts 156°
2026-05-06 15:17 36.46546 -101.96796 35105 ft 461 kts 156°
2026-05-06 15:18 36.41654 -101.91680 35102 ft 459 kts 156°
2026-05-06 15:18 36.36738 -101.86557 35103 ft 460 kts 156°
2026-05-06 15:19 36.31794 -101.81418 35102 ft 463 kts 156°
2026-05-06 15:19 36.26894 -101.76320 35101 ft 462 kts 156°
2026-05-06 15:20 36.21920 -101.71161 35100 ft 464 kts 156°
2026-05-06 15:20 36.16969 -101.66029 35096 ft 463 kts 156°
2026-05-06 15:21 36.12012 -101.60909 35097 ft 462 kts 157°
2026-05-06 15:21 36.07073 -101.55821 35095 ft 463 kts 157°
2026-05-06 15:22 36.02133 -101.50726 35094 ft 464 kts 156°
2026-05-06 15:22 35.97190 -101.45624 35093 ft 463 kts 156°
2026-05-06 15:23 35.92216 -101.40514 35084 ft 465 kts 156°
2026-05-06 15:23 35.87236 -101.35413 35093 ft 465 kts 156°
2026-05-06 15:24 35.82300 -101.30360 35091 ft 462 kts 157°
2026-05-06 15:24 35.77330 -101.25284 35091 ft 463 kts 157°
2026-05-06 15:25 35.72382 -101.20239 35096 ft 462 kts 157°
2026-05-06 15:25 35.67455 -101.15217 35088 ft 460 kts 158°
2026-05-06 15:26 35.62501 -101.10186 35091 ft 462 kts 157°
2026-05-06 15:26 35.57596 -101.05199 35099 ft 460 kts 157°
2026-05-06 15:27 35.52648 -101.00185 35099 ft 463 kts 156°
2026-05-06 15:27 35.47810 -100.94869 35091 ft 470 kts 154°
2026-05-06 15:28 35.43002 -100.89468 35073 ft 470 kts 154°
2026-05-06 15:28 35.38160 -100.84042 35067 ft 470 kts 154°
2026-05-06 15:29 35.33359 -100.78670 35065 ft 470 kts 154°
2026-05-06 15:29 35.28552 -100.73302 35061 ft 467 kts 154°
2026-05-06 15:30 35.23720 -100.67924 35066 ft 469 kts 154°
2026-05-06 15:30 35.18917 -100.62582 35065 ft 470 kts 154°
2026-05-06 15:31 35.14103 -100.57235 35063 ft 470 kts 154°
2026-05-06 15:31 35.09242 -100.51845 35064 ft 470 kts 154°
2026-05-06 15:32 35.02011 -100.43845 35061 ft 470 kts 154°
2026-05-06 15:32 34.97194 -100.38527 35066 ft 470 kts 154°
2026-05-06 15:33 34.92335 -100.33172 35059 ft 470 kts 155°
2026-05-06 15:33 34.87503 -100.27853 35067 ft 467 kts 155°
2026-05-06 15:34 34.82699 -100.22578 35069 ft 469 kts 155°
2026-05-06 15:34 34.77857 -100.17265 35065 ft 466 kts 155°
2026-05-06 15:35 34.73019 -100.11971 35067 ft 467 kts 155°
2026-05-06 15:35 34.68220 -100.06722 35066 ft 467 kts 155°
2026-05-06 15:36 34.63411 -100.01478 35067 ft 467 kts 154°
2026-05-06 15:36 34.58557 -99.96191 35069 ft 468 kts 154°
2026-05-06 15:37 34.53737 -99.90945 35067 ft 466 kts 154°
2026-05-06 15:37 34.48920 -99.85716 35069 ft 468 kts 154°
2026-05-06 15:38 34.44076 -99.80463 35069 ft 467 kts 154°
2026-05-06 15:38 34.39238 -99.75223 35069 ft 466 kts 154°
2026-05-06 15:39 34.34403 -99.70001 35066 ft 468 kts 154°
2026-05-06 15:39 34.29534 -99.64750 35064 ft 469 kts 154°
2026-05-06 15:40 34.24672 -99.59510 35064 ft 470 kts 154°
2026-05-06 15:40 34.19787 -99.54251 35063 ft 467 kts 154°
2026-05-06 15:41 34.14936 -99.49047 35063 ft 469 kts 154°
2026-05-06 15:41 34.10042 -99.43806 35064 ft 471 kts 154°
2026-05-06 15:42 34.05175 -99.38589 35062 ft 469 kts 154°
2026-05-06 15:42 34.00285 -99.33365 35057 ft 468 kts 154°
2026-05-06 15:43 33.95449 -99.28199 35052 ft 467 kts 154°
2026-05-06 15:43 33.90581 -99.23020 35055 ft 468 kts 154°
2026-05-06 15:44 33.85689 -99.17817 35047 ft 469 kts 154°
2026-05-06 15:44 33.80823 -99.12650 35048 ft 469 kts 154°
2026-05-06 15:45 33.75951 -99.07481 35040 ft 467 kts 154°
2026-05-06 15:45 33.71088 -99.02340 35039 ft 470 kts 154°
2026-05-06 15:46 33.66211 -98.97180 35037 ft 467 kts 154°
2026-05-06 15:46 33.61322 -98.92026 35023 ft 470 kts 154°
2026-05-06 15:47 33.56409 -98.86851 35030 ft 472 kts 154°
2026-05-06 15:47 33.51471 -98.81651 35026 ft 471 kts 154°
2026-05-06 15:48 33.46578 -98.76513 35026 ft 470 kts 154°
2026-05-06 15:48 33.41639 -98.71335 35028 ft 472 kts 154°
2026-05-06 15:49 33.36720 -98.66184 35029 ft 471 kts 154°
2026-05-06 15:49 33.31788 -98.61028 35030 ft 472 kts 154°
2026-05-06 15:50 33.26855 -98.55881 35026 ft 471 kts 153°
2026-05-06 15:50 33.21907 -98.50724 35034 ft 470 kts 154°
2026-05-06 15:51 33.16991 -98.45607 35033 ft 470 kts 153°
2026-05-06 15:51 33.12059 -98.40488 35030 ft 473 kts 154°
2026-05-06 15:52 33.07104 -98.35352 35030 ft 473 kts 153°
2026-05-06 15:52 33.02144 -98.30209 35014 ft 472 kts 154°
2026-05-06 15:53 32.97197 -98.25092 35011 ft 471 kts 154°
2026-05-06 15:53 32.92251 -98.19982 35012 ft 469 kts 154°
2026-05-06 15:54 32.87316 -98.14896 35013 ft 470 kts 154°
2026-05-06 15:54 32.82369 -98.09803 35018 ft 472 kts 153°
2026-05-06 15:55 32.77419 -98.04711 35018 ft 472 kts 153°
2026-05-06 15:55 32.72504 -97.99547 35014 ft 476 kts 150°
2026-05-06 15:56 32.67836 -97.93853 35010 ft 483 kts 147°
2026-05-06 15:56 32.63229 -97.88061 35004 ft 483 kts 147°
2026-05-06 15:57 32.58607 -97.82273 35006 ft 484 kts 147°
2026-05-06 15:57 32.53995 -97.76508 35011 ft 483 kts 147°
2026-05-06 15:58 32.49385 -97.70766 35014 ft 484 kts 147°
2026-05-06 15:58 32.44748 -97.64994 35012 ft 483 kts 146°
2026-05-06 15:59 32.40111 -97.59238 35008 ft 484 kts 146°
2026-05-06 15:59 32.35483 -97.53497 35000 ft 484 kts 146°
2026-05-06 16:00 32.30857 -97.47765 34998 ft 484 kts 146°
2026-05-06 16:00 32.26181 -97.41990 34994 ft 486 kts 146°
2026-05-06 16:01 32.21558 -97.36276 34992 ft 483 kts 146°
2026-05-06 16:01 32.19693 -97.33981 34989 ft 485 kts 146°
2026-05-06 16:02 32.19087 -97.33237 34989 ft 485 kts 146°
2026-05-06 16:03 32.17932 -97.31813 34996 ft 485 kts 147°
2026-05-06 16:03 32.13284 -97.26091 34997 ft 484 kts 146°
2026-05-06 16:04 32.08625 -97.20364 35005 ft 485 kts 146°
2026-05-06 16:04 32.03958 -97.14636 35008 ft 484 kts 146°
2026-05-06 16:05 31.99301 -97.08932 35008 ft 485 kts 146°
2026-05-06 16:05 31.94634 -97.03224 35003 ft 486 kts 146°
2026-05-06 16:06 31.89959 -96.97514 34996 ft 485 kts 146°
2026-05-06 16:06 31.85256 -96.91779 34991 ft 485 kts 146°
2026-05-06 16:07 31.80580 -96.86082 34984 ft 483 kts 146°
2026-05-06 16:07 31.75918 -96.80421 34973 ft 486 kts 146°
2026-05-06 16:08 31.71228 -96.74722 34972 ft 485 kts 146°
2026-05-06 16:08 31.66519 -96.69012 34767 ft 486 kts 146°
2026-05-06 16:09 31.64169 -96.66172 34056 ft 487 kts 145°
2026-05-06 16:09 31.61841 -96.63354 33360 ft 487 kts 145°
2026-05-06 16:09 31.59476 -96.60494 32675 ft 487 kts 145°
2026-05-06 16:09 31.57123 -96.57655 31977 ft 488 kts 144°
2026-05-06 16:10 31.54740 -96.54878 31250 ft 484 kts 148°
2026-05-06 16:10 31.52191 -96.52344 30496 ft 477 kts 153°
2026-05-06 16:10 31.49505 -96.50117 29738 ft 470 kts 158°
2026-05-06 16:10 31.46718 -96.48208 28961 ft 463 kts 162°
2026-05-06 16:11 31.43867 -96.46455 28167 ft 463 kts 163°
2026-05-06 16:11 31.41019 -96.44730 27611 ft 457 kts 163°
2026-05-06 16:11 31.38219 -96.43030 27085 ft 451 kts 162°
2026-05-06 16:11 31.35456 -96.41346 26570 ft 445 kts 162°
2026-05-06 16:12 31.32727 -96.39677 26047 ft 440 kts 162°
2026-05-06 16:12 31.30034 -96.38032 25579 ft 433 kts 162°
2026-05-06 16:12 31.27402 -96.36417 25387 ft 419 kts 162°
2026-05-06 16:12 31.24862 -96.34861 25015 ft 410 kts 163°
2026-05-06 16:13 31.22338 -96.33327 24527 ft 405 kts 163°
2026-05-06 16:13 31.19880 -96.31835 24063 ft 400 kts 162°
2026-05-06 16:13 31.17431 -96.30348 23600 ft 395 kts 162°
2026-05-06 16:13 31.14998 -96.28871 23137 ft 391 kts 162°
2026-05-06 16:14 31.12596 -96.27411 22678 ft 387 kts 162°
2026-05-06 16:14 31.10228 -96.25971 22211 ft 383 kts 162°
2026-05-06 16:14 31.07851 -96.24526 21731 ft 380 kts 162°
2026-05-06 16:14 31.05521 -96.23110 21276 ft 377 kts 162°
2026-05-06 16:15 31.03215 -96.21712 20817 ft 374 kts 162°
2026-05-06 16:15 31.00919 -96.20321 20377 ft 371 kts 162°
2026-05-06 16:15 30.98640 -96.18906 19914 ft 370 kts 160°
2026-05-06 16:15 30.96398 -96.17457 19441 ft 368 kts 160°
2026-05-06 16:16 30.94170 -96.16009 18997 ft 365 kts 160°
2026-05-06 16:16 30.91964 -96.14578 18542 ft 363 kts 160°
2026-05-06 16:16 30.89785 -96.13170 18095 ft 361 kts 159°
2026-05-06 16:16 30.87571 -96.11744 17633 ft 359 kts 159°
2026-05-06 16:17 30.85388 -96.10339 17176 ft 357 kts 159°
2026-05-06 16:17 30.83222 -96.08947 16729 ft 355 kts 159°
2026-05-06 16:17 30.81064 -96.07561 16286 ft 353 kts 159°
2026-05-06 16:17 30.78935 -96.06194 15847 ft 351 kts 159°
2026-05-06 16:18 30.76780 -96.04811 15385 ft 349 kts 159°
2026-05-06 16:18 30.74666 -96.03455 14952 ft 347 kts 158°
2026-05-06 16:18 30.72558 -96.02105 14524 ft 345 kts 158°
2026-05-06 16:18 30.70487 -96.00781 14084 ft 342 kts 158°
2026-05-06 16:19 30.68405 -95.99450 13649 ft 340 kts 158°
2026-05-06 16:19 30.66341 -95.98130 13210 ft 337 kts 157°
2026-05-06 16:19 30.64300 -95.96822 12780 ft 335 kts 157°
2026-05-06 16:19 30.62264 -95.95516 12336 ft 333 kts 157°
2026-05-06 16:20 30.60234 -95.94218 11891 ft 330 kts 157°
2026-05-06 16:20 30.58256 -95.92952 11454 ft 328 kts 156°
2026-05-06 16:20 30.56264 -95.91678 11021 ft 325 kts 156°
2026-05-06 16:20 30.54281 -95.90409 10657 ft 318 kts 156°
2026-05-06 16:21 30.52417 -95.89211 10525 ft 294 kts 156°
2026-05-06 16:21 30.50678 -95.88097 10395 ft 282 kts 158°
2026-05-06 16:21 30.48860 -95.87264 10268 ft 276 kts 170°
2026-05-06 16:21 30.47002 -95.86874 9910 ft 273 kts 178°
2026-05-06 16:22 30.45110 -95.86656 9528 ft 272 kts 179°
2026-05-06 16:22 30.43225 -95.86459 9160 ft 270 kts 179°
2026-05-06 16:22 30.41360 -95.86261 8806 ft 269 kts 179°
2026-05-06 16:22 30.39493 -95.86060 8451 ft 268 kts 178°
2026-05-06 16:23 30.37635 -95.85856 8093 ft 267 kts 178°
2026-05-06 16:23 30.35795 -95.85651 7739 ft 266 kts 177°
2026-05-06 16:23 30.33962 -95.85447 7384 ft 265 kts 177°
2026-05-06 16:23 30.32123 -95.85240 7027 ft 264 kts 176°
2026-05-06 16:24 30.30289 -95.85033 6672 ft 262 kts 176°
2026-05-06 16:24 30.28480 -95.84829 6330 ft 261 kts 176°
2026-05-06 16:24 30.26694 -95.84628 6034 ft 258 kts 176°
2026-05-06 16:24 30.24943 -95.84428 5969 ft 243 kts 176°
2026-05-06 16:25 30.23292 -95.84239 5964 ft 230 kts 176°
2026-05-06 16:25 30.21705 -95.84058 5968 ft 230 kts 174°
2026-05-06 16:25 30.20182 -95.83465 5861 ft 235 kts 148°
2026-05-06 16:25 30.19122 -95.82047 5623 ft 240 kts 117°
2026-05-06 16:26 30.18733 -95.80145 5384 ft 244 kts 99°
2026-05-06 16:26 30.18599 -95.78205 5135 ft 244 kts 96°
2026-05-06 16:26 30.18509 -95.76238 4981 ft 243 kts 96°
2026-05-06 16:26 30.18427 -95.74294 4975 ft 244 kts 96°
2026-05-06 16:27 30.18344 -95.72315 4971 ft 244 kts 96°
2026-05-06 16:27 30.18264 -95.70373 4972 ft 244 kts 96°
2026-05-06 16:27 30.18181 -95.68414 4977 ft 244 kts 96°
2026-05-06 16:27 30.18099 -95.66464 4973 ft 244 kts 96°
2026-05-06 16:28 30.18014 -95.64485 4972 ft 244 kts 96°
2026-05-06 16:28 30.17935 -95.62528 4976 ft 244 kts 96°
2026-05-06 16:28 30.17858 -95.60576 4979 ft 244 kts 96°
2026-05-06 16:28 30.17782 -95.58622 4978 ft 244 kts 96°
2026-05-06 16:29 30.17706 -95.56638 4979 ft 244 kts 96°
2026-05-06 16:29 30.17632 -95.54681 4979 ft 244 kts 95°
2026-05-06 16:29 30.17557 -95.52734 4979 ft 244 kts 96°
2026-05-06 16:29 30.17484 -95.50783 4978 ft 244 kts 96°
2026-05-06 16:30 30.17417 -95.48850 4966 ft 235 kts 95°
2026-05-06 16:30 30.17378 -95.47612 4963 ft 229 kts 95°
2026-05-06 16:30 30.17300 -95.45168 4974 ft 228 kts 95°
2026-05-06 16:30 30.17239 -95.43322 4977 ft 229 kts 95°
2026-05-06 16:31 30.17180 -95.41489 4978 ft 229 kts 95°
2026-05-06 16:31 30.17120 -95.39635 4978 ft 229 kts 95°
2026-05-06 16:31 30.17062 -95.37801 4979 ft 230 kts 95°
2026-05-06 16:31 30.17002 -95.35956 4979 ft 230 kts 95°
2026-05-06 16:32 30.16945 -95.34103 4980 ft 230 kts 96°
2026-05-06 16:32 30.16889 -95.32265 4979 ft 229 kts 96°
2026-05-06 16:32 30.16834 -95.30414 4979 ft 229 kts 96°
2026-05-06 16:32 30.16777 -95.28584 4980 ft 229 kts 96°
2026-05-06 16:33 30.16721 -95.26733 4978 ft 230 kts 96°
2026-05-06 16:33 30.16666 -95.24880 4976 ft 230 kts 96°
2026-05-06 16:33 30.16616 -95.23042 4979 ft 230 kts 96°
2026-05-06 16:34 30.16522 -95.19340 4978 ft 230 kts 95°
2026-05-06 16:34 30.16477 -95.17481 4976 ft 231 kts 96°
2026-05-06 16:34 30.16429 -95.15628 4975 ft 231 kts 96°
2026-05-06 16:34 30.16383 -95.13791 4972 ft 230 kts 96°
2026-05-06 16:35 30.16339 -95.11934 4968 ft 231 kts 96°
2026-05-06 16:35 30.16294 -95.10074 4967 ft 231 kts 96°
2026-05-06 16:35 30.16247 -95.08215 4970 ft 232 kts 95°
2026-05-06 16:35 30.16201 -95.06354 4972 ft 232 kts 96°
2026-05-06 16:36 30.16153 -95.04516 4970 ft 231 kts 96°
2026-05-06 16:36 30.16102 -95.02660 4968 ft 231 kts 95°
2026-05-06 16:36 30.16050 -95.00790 4966 ft 231 kts 95°
2026-05-06 16:36 30.15996 -94.98930 4966 ft 231 kts 96°
2026-05-06 16:37 30.15947 -94.97092 4964 ft 231 kts 95°
2026-05-06 16:37 30.15902 -94.95224 4967 ft 231 kts 95°
2026-05-06 16:37 30.15831 -94.93373 4962 ft 229 kts 103°
2026-05-06 16:37 30.15189 -94.91782 4807 ft 214 kts 143°
2026-05-06 16:38 30.13900 -94.91131 4648 ft 195 kts 179°
2026-05-06 16:38 30.12589 -94.91202 4529 ft 183 kts 187°
2026-05-06 16:38 30.11351 -94.91335 4399 ft 180 kts 186°
2026-05-06 16:38 30.10098 -94.91428 4280 ft 180 kts 184°
2026-05-06 16:39 30.08845 -94.91484 4158 ft 180 kts 183°
2026-05-06 16:39 30.07576 -94.91518 4039 ft 180 kts 183°
2026-05-06 16:39 30.06317 -94.91541 4015 ft 181 kts 182°
2026-05-06 16:39 30.05065 -94.91558 3908 ft 181 kts 182°
2026-05-06 16:40 30.03802 -94.91640 3783 ft 179 kts 192°
2026-05-06 16:40 30.02631 -94.92143 3661 ft 180 kts 209°
2026-05-06 16:40 30.01718 -94.93098 3529 ft 182 kts 236°
2026-05-06 16:40 30.01178 -94.94443 3426 ft 185 kts 247°
2026-05-06 16:41 30.00857 -94.95882 3309 ft 186 kts 257°
2026-05-06 16:41 30.00731 -94.97377 3190 ft 187 kts 265°
2026-05-06 16:41 30.00734 -94.98882 3071 ft 188 kts 267°
2026-05-06 16:41 30.00762 -95.00380 2975 ft 187 kts 268°
2026-05-06 16:42 30.00784 -95.01896 2976 ft 188 kts 268°
2026-05-06 16:42 30.00796 -95.03410 2973 ft 188 kts 267°
2026-05-06 16:42 30.00800 -95.04913 2970 ft 188 kts 266°
2026-05-06 16:42 30.00797 -95.06437 2963 ft 188 kts 266°
2026-05-06 16:43 30.00791 -95.07943 2969 ft 188 kts 266°
2026-05-06 16:43 30.00784 -95.09444 2965 ft 188 kts 266°
2026-05-06 16:43 30.00775 -95.10955 2972 ft 188 kts 266°
2026-05-06 16:43 30.00768 -95.12484 2974 ft 188 kts 266°
2026-05-06 16:44 30.00761 -95.13972 2970 ft 188 kts 267°
2026-05-06 16:44 30.00756 -95.15498 2913 ft 189 kts 267°
2026-05-06 16:44 30.00751 -95.16995 2702 ft 188 kts 267°
2026-05-06 16:44 30.00749 -95.18503 2455 ft 184 kts 268°
2026-05-06 16:45 30.00747 -95.19920 2251 ft 174 kts 268°
2026-05-06 16:45 30.00743 -95.21295 2010 ft 167 kts 267°
2026-05-06 16:45 30.00737 -95.22598 1786 ft 157 kts 267°
2026-05-06 16:45 30.00729 -95.23807 1575 ft 148 kts 266°
2026-05-06 16:46 30.00726 -95.24991 1407 ft 147 kts 267°
2026-05-06 16:46 30.00727 -95.26174 1232 ft 147 kts 268°
2026-05-06 16:46 30.00725 -95.27343 1053 ft 146 kts 267°
2026-05-06 16:46 30.00719 -95.28518 867 ft 146 kts 267°
2026-05-06 16:47 30.00722 -95.29681 675 ft 146 kts 268°
2026-05-06 16:47 30.00733 -95.30856 492 ft 145 kts 268°
2026-05-06 16:47 30.00726 -95.32009 308 ft 145 kts 267°
2026-05-06 16:47 30.00718 -95.33166 145 ft 144 kts 268°
2026-05-06 16:48 30.00712 -95.34279 102 ft 114 kts 272°
2026-05-06 16:48 30.00691 -95.34873 101 ft 45 kts 240°
2026-05-06 16:48 30.00564 -95.35186 99 ft 41 kts 258°
2026-05-06 16:48 30.00552 -95.35490 98 ft 22 kts 269°
2026-05-06 16:49 30.00480 -95.35630 98 ft 20 kts 209°
2026-05-06 16:49 30.00341 -95.35653 98 ft 19 kts 180°
2026-05-06 16:49 30.00211 -95.35618 99 ft 18 kts 151°
2026-05-06 16:49 30.00102 -95.35537 99 ft 18 kts 159°
2026-05-06 16:50 29.99983 -95.35493 100 ft 18 kts 172°
2026-05-06 16:50 29.99857 -95.35484 100 ft 17 kts 176°
2026-05-06 16:50 29.99732 -95.35480 100 ft 18 kts 179°
2026-05-06 16:50 29.99605 -95.35476 100 ft 18 kts 178°
2026-05-06 16:51 29.99473 -95.35473 100 ft 19 kts 181°
2026-05-06 16:51 29.99335 -95.35474 101 ft 19 kts 181°
2026-05-06 16:51 29.99200 -95.35464 101 ft 19 kts 144°
2026-05-06 16:51 29.99175 -95.35320 100 ft 19 kts 90°
2026-05-06 16:52 29.99175 -95.35165 100 ft 19 kts 90°
2026-05-06 16:52 29.99126 -95.35040 100 ft 18 kts 173°
2026-05-06 16:52 29.99017 -95.35081 100 ft 15 kts 175°
2026-05-06 16:52 29.98912 -95.35058 100 ft 15 kts 144°
2026-05-06 16:53 29.98886 -95.35010 100 ft 0 kts 97°